Weather History for Madera, CA

Change the Weather History Date:

Friday, December 21, 2012

  Actual Average Record
Temperature  
Mean Temperature 47 °F 45 °F  
Max Temperature 58 °F 53 °F 65 °F (2000)
Min Temperature 35 °F 36 °F 19 °F (1998)
Degree Days  
Heating Degree Days 18    
Month to date heating degree days 330  
Since 1 July heating degree days 698  
Cooling Degree Days 0    
Month to date cooling degree days 0  
Year to date cooling degree days 1737  
Moisture  
Dew Point 32 °F    
Average Humidity 53    
Maximum Humidity 70    
Minimum Humidity 36    
Precipitation  
Precipitation 0.03 in 0.06 in 0.46 in (2009)
Month to date precipitation 1.01 1.01  
Year to date precipitation 9.41 11.33  
Since 1 July precipitation 3.19 3.33  
Snow  
Snow 0.00 in - - ()
Month to date snowfall 0.0  
Since 1 July snowfall 0.0  
Snow Depth 0.00 in    
Sea Level Pressure  
Sea Level Pressure 30.03 in    
Wind  
Wind Speed 11 mph (ESE)    
Max Wind Speed 17 mph    
Max Gust Speed 22 mph    
Visibility 10 miles    
Events Rain    
T = Trace of Precipitation, MM = Missing Value Source: NWS Daily Summary

Daily Weather History Graph

Daily Weather History Graph

Search for Another Location

Airport:

Trip Planner

Search our weather history database for the weather conditions in past years. The results will help you decide how hot, cold, wet, or windy it might be!

Date:

Astronomy

Dec. 21, 2012 Rise Set
Actual Time 7:10 AM PST 4:47 PM PST
Civil Twilight 6:41 AM PST 5:16 PM PST
Nautical Twilight 6:08 AM PST 5:49 PM PST
Astronomical Twilight 5:36 AM PST 6:20 PM PST
Moon 12:31 PM PST (12/21) 1:07 AM PST (12/21)
Length of Visible Light 10h 35m
Length of Day
9h 37m
Waxing Gibbous, 66% of the Moon is Illuminated
Dec 21
Waxing Gibbous
Dec 28
Full
Jan 4
Last Quarter
Jan 11
New
Jan 18
First Quarter

Hourly Weather History & Observations

Time (PST) Temp. Windchill Dew Point Humidity Pressure Visibility Wind Dir Wind Speed Gust Speed Precip Events Conditions
12:53 AM 37.9 °F 32.1 °F 28.0 °F 68% 30.07 in 10.0 mi ESE 8.1 mph - N/A   Clear
1:53 AM 36.0 °F 29.6 °F 27.0 °F 70% 30.06 in 10.0 mi ESE 8.1 mph - N/A   Clear
2:53 AM 39.9 °F 32.5 °F 28.0 °F 63% 30.03 in 10.0 mi ESE 12.7 mph - N/A   Clear
3:53 AM 39.9 °F 35.1 °F 27.0 °F 60% 30.02 in 10.0 mi SSE 6.9 mph - N/A   Clear
4:53 AM 37.0 °F 30.4 °F 26.1 °F 65% 30.02 in 10.0 mi ESE 9.2 mph - N/A   Clear
5:53 AM 39.0 °F 33.4 °F 26.1 °F 60% 30.03 in 10.0 mi ESE 8.1 mph - N/A   Clear
6:53 AM 37.9 °F 31.5 °F 27.0 °F 65% 30.03 in 10.0 mi East 9.2 mph - N/A   Clear
7:53 AM 43.0 °F 36.4 °F 28.0 °F 56% 30.03 in 10.0 mi ESE 12.7 mph - N/A   Clear
8:53 AM 46.9 °F - 27.0 °F 46% 30.05 in 10.0 mi ESE 12.7 mph - N/A   Clear
9:53 AM 48.9 °F - 28.9 °F 46% 30.05 in 10.0 mi ESE 13.8 mph - N/A   Clear
10:53 AM 53.1 °F - 28.0 °F 38% 30.04 in 10.0 mi ESE 15.0 mph - N/A   Clear
11:53 AM 54.0 °F - 28.9 °F 38% 30.03 in 10.0 mi East 13.8 mph - N/A   Clear
12:53 PM 55.9 °F - 32.0 °F 40% 30.02 in 10.0 mi East 10.4 mph - N/A   Clear
1:53 PM 57.9 °F - 30.0 °F 35% 29.99 in 10.0 mi ESE 12.7 mph - N/A   Partly Cloudy
2:53 PM 57.0 °F - 30.9 °F 37% 29.99 in 10.0 mi ESE 11.5 mph - N/A   Mostly Cloudy
3:53 PM 57.0 °F - 32.0 °F 39% 29.98 in 10.0 mi ESE 13.8 mph - N/A   Overcast
4:53 PM 55.0 °F - 33.1 °F 43% 30.00 in 10.0 mi East 8.1 mph - N/A   Overcast
5:53 PM 52.0 °F - 37.9 °F 59% 30.01 in 10.0 mi North - - 0.00 in Rain Light Rain
6:53 PM 52.0 °F - 37.0 °F 57% 30.02 in 10.0 mi North - - 0.00 in   Overcast
7:53 PM 52.0 °F - 37.9 °F 59% 30.03 in 10.0 mi North - - 0.00 in Rain Light Rain
8:53 PM 51.1 °F - 39.0 °F 63% 30.04 in 10.0 mi North - - 0.00 in   Overcast
9:53 PM 51.1 °F - 39.9 °F 66% 30.04 in 10.0 mi North - - 0.00 in   Overcast
10:53 PM 50.0 °F - 43.0 °F 77% 30.02 in 10.0 mi North - - 0.00 in Rain Light Rain
11:53 PM 48.9 °F - 44.1 °F 83% 30.01 in 7.0 mi North - - 0.02 in Rain Light Rain